RH
101 101 100 101 100 100 97 98 99 94 95 102 101 89 83 86 83 89 101 101 100 102 99 91 84 89 96 100 101 98 100 103 103 102 98 94 89 79 75 76 63 49 57 75 90 95 85 70 57 52 56 74 98 102 99 100 100 99 100 103 103 103 102 98 90 88 98 104 107 105 101 103 99 88 82 82 87 96 104 105 100 100 100 100 101
101 101 101 102 100 99 95 95 100 101 99 102 105 95 85 95 99 96 96 94 99 104 102 99 94 95 98 101 103 100 103 103 102 102 97 91 80 66 64 68 60 59 77 88 92 86 74 71 66 60 56 64 86 100 100 99 100 98 100 103 103 103 101 98 91 89 98 102 104 104 100 102 102 93 82 74 74 79 93 105 103 99 100 99 100
99 99 100 101 98 96 96 94 96 101 102 100 106 101 83 89 100 98 88 75 89 105 102 101 100 99 100 101 100 98 100 100 98 98 97 90 75 61 56 59 65 74 85 91 91 75 57 57 62 62 58 65 83 94 98 101 100 99 100 102 102 102 102 102 94 91 98 100 101 101 95 93 93 91 83 73 68 66 76 94 104 103 101 100 100
98 100 99 97 97 95 92 88 83 80 88 93 100 100 76 62 81 102 90 70 86 104 100 100 100 101 100 96 95 96 97 99 98 96 96 87 69 58 54 66 87 90 84 86 85 74 71 77 78 71 62 69 88 92 94 100 100 99 100 100 101 101 102 102 95 92 98 100 100 97 92 85 80 82 81 74 67 63 67 84 102 105 103 102 101
97 101 92 81 82 82 72 67 61 51 65 86 93 91 65 46 77 105 86 76 96 103 99 101 99 101 99 91 92 97 99 99 98 100 101 88 70 57 55 74 99 99 85 79 80 83 93 101 97 89 78 81 95 97 95 99 101 100 99 99 100 100 101 101 96 96 100 101 99 99 98 91 80 77 78 72 65 61 63 79 97 102 101 102 102
98 95 79 62 58 55 46 40 40 34 45 68 73 65 45 39 78 100 80 82 101 99 99 101 99 101 100 96 94 92 95 99 99 98 96 84 66 56 64 85 97 97 93 88 91 97 101 104 96 91 94 96 101 103 98 98 99 99 100 100 100 100 100 102 99 97 99 100 100 100 102 99 89 81 78 75 70 63 60 68 81 91 96 99 101
82 70 56 46 42 39 34 29 29 29 31 40 43 38 37 52 82 97 85 89 101 99 100 100 99 101 98 100 100 93 93 99 101 93 87 79 59 54 77 99 101 97 100 101 100 100 103 105 97 93 98 97 96 101 100 100 99 99 100 99 99 99 100 103 102 100 100 99 101 100 98 98 95 86 78 76 75 71 65 63 68 77 86 93 96
66 58 51 48 46 42 36 33 31 29 26 27 28 28 45 75 93 99 94 94 100 100 100 100 100 101 98 99 100 100 99 95 95 92 93 94 79 74 86 94 99 99 99 103 103 102 102 100 99 100 100 95 90 91 93 96 98 99 101 101 101 100 100 103 104 104 104 100 100 101 97 96 95 86 76 72 74 76 72 66 62 67 77 86 90
81 72 66 57 49 40 32 33 31 30 27 24 27 29 46 75 89 96 97 98 101 99 100 101 99 100 100 102 100 101 102 95 93 96 97 98 96 96 96 93 98 102 102 104 103 102 100 97 100 101 99 98 89 83 85 87 88 90 93 95 98 100 101 103 103 103 103 101 101 103 99 97 97 88 75 69 75 82 80 73 67 66 73 79 80
86 71 61 48 37 29 23 27 30 32 32 29 39 58 74 86 92 97 100 101 101 99 100 100 100 100 100 103 101 99 101 96 94 102 102 97 96 97 98 99 99 100 102 103 101 100 99 98 101 100 100 101 91 86 91 93 93 92 92 94 93 96 99 100 105 105 101 99 102 104 99 97 99 92 78 70 77 85 83 79 73 69 72 76 76
72 59 48 36 28 25 23 28 30 33 46 54 67 91 100 99 99 99 100 101 101 100 100 100 100 100 100 100 99 102 103 91 81 93 104 99 97 99 100 100 99 101 101 100 100 101 100 99 100 101 101 101 97 95 95 96 96 93 96 103 100 97 97 97 103 106 102 99 101 104 98 96 99 96 88 78 79 85 85 82 76 71 72 77 81
55 45 37 30 26 25 27 33 35 46 75 89 93 101 102 99 100 100 99 100 100 100 99 100 100 100 102 99 98 102 103 95 85 90 102 99 96 101 102 100 100 101 101 101 102 101 100 99 99 100 100 100 101 100 97 97 97 93 95 102 101 100 100 100 102 102 102 100 101 103 101 100 101 99 98 89 80 80 82 81 76 72 70 74 82
44 36 31 29 27 26 30 42 52 68 94 105 102 100 98 99 100 99 100 101 100 101 100 101 102 101 101 100 101 105 103 102 100 96 100 102 100 102 102 100 99 100 102 103 105 102 100 101 100 100 100 100 99 99 100 100 100 100 100 100 100 100 100 101 102 100 100 101 101 103 104 104 103 101 101 96 85 77 75 77 77 75 72 73 78
40 34 30 26 26 27 32 49 66 82 95 100 101 101 100 100 101 100 100 99 99 101 100 100 101 99 101 104 101 98 93 90 92 89 93 102 103 103 103 100 98 99 101 100 102 102 100 101 101 100 99 99 100 100 100 100 99 100 100 101 101 99 97 99 102 100 101 103 102 103 104 103 102 101 99 95 89 81 75 74 75 75 76 78 80
43 35 31 28 27 28 32 45 65 86 98 99 97 99 99 93 91 97 102 102 100 100 101 102 102 98 103 108 97 85 79 79 85 83 86 98 101 103 104 100 99 100 100 100 100 100 100 100 100 100 101 100 101 100 99 99 99 99 100 100 100 100 99 101 103 98 94 96 98 100 104 104 102 99 96 90 85 85 87 86 83 80 81 82 84
52 41 35 32 31 31 33 36 50 74 92 100 99 96 94 87 82 87 92 96 99 101 103 104 101 99 105 107 94 83 76 73 78 77 85 99 99 100 103 99 100 100 99 99 100 100 99 99 100 100 101 100 101 101 99 99 99 99 100 100 100 100 100 101 102 97 87 84 87 89 94 98 97 93 85 76 70 75 88 99 100 96 95 92 86
69 58 47 41 38 36 35 33 35 47 63 79 89 94 98 97 90 83 77 82 93 99 101 102 98 94 96 92 85 83 78 72 67 64 83 104 100 97 102 101 101 100 99 99 100 102 100 101 103 100 99 100 100 100 101 100 99 100 100 100 101 100 99 100 101 102 95 87 81 76 74 74 75 75 71 64 62 67 79 93 99 98 98 99 94
92 81 69 58 50 43 40 37 33 34 41 52 61 72 85 90 90 87 81 77 77 78 79 79 75 72 70 69 75 82 80 76 68 59 72 92 98 100 101 100 101 99 101 102 100 101 100 102 105 101 99 100 99 100 101 99 99 100 99 100 101 100 99 99 100 102 102 99 95 87 80 75 72 74 77 75 73 73 75 81 88 89 89 93 99
99 94 81 67 58 51 44 39 37 34 36 41 45 49 54 57 58 58 55 49 46 46 46 48 47 47 49 53 63 70 67 64 62 58 62 71 85 101 100 96 100 100 100 102 101 100 100 102 103 101 99 99 99 100 100 100 99 100 100 100 100 100 99 100 100 100 100 103 104 100 96 93 91 94 96 94 89 80 72 70 73 78 81 81 87
69 73 67 59 53 50 47 44 42 38 35 36 39 39 37 35 33 32 33 33 33 34 35 38 42 44 46 47 51 56 57 57 56 56 60 62 67 88 100 97 100 101 100 101 99 99 100 100 102 101 99 99 100 100 100 99 99 100 100 99 100 99 99 100 100 99 100 100 101 100 100 100 99 100 101 100 100 95 87 80 71 67 72 74 76
46 51 54 52 48 46 47 46 45 44 43 41 39 39 37 34 32 32 31 31 33 34 34 36 41 44 45 45 47 50 53 56 56 54 60 64 60 75 99 103 99 96 99 102 99 99 101 100 101 100 99 101 101 100 101 100 100 101 100 99 100 100 100 100 100 100 100 100 100 99 99 101 101 101 101 101 101 100 100 97 86 73 69 70 72
44 45 47 48 47 46 44 43 45 49 52 50 46 44 42 39 38 36 34 31 31 32 33 33 36 39 39 41 43 48 53 55 55 51 53 58 54 60 77 86 82 80 92 103 100 98 100 100 101 100 99 101 100 99 100 99 99 100 100 100 100 100 101 100 100 100 100 99 100 101 100 100 100 101 102 101 100 99 100 102 98 89 80 70 68
46 44 42 42 43 46 46 43 45 51 57 58 55 51 49 47 45 42 38 34 30 30 32 31 32 35 37 38 39 45 53 54 49 44 44 50 54 57 64 72 72 70 82 98 101 100 100 99 100 99 100 101 100 100 100 99 98 99 101 100 99 100 101 101 100 100 100 95 90 93 101 104 103 104 104 101 100 101 101 103 101 97 92 79 69
59 53 45 40 40 45 47 43 43 49 54 56 56 55 54 53 50 45 40 36 32 31 31 30 29 32 36 37 37 39 44 47 44 40 42 52 61 64 65 69 69 67 74 85 92 97 99 100 101 99 99 100 100 101 100 99 98 98 100 100 100 100 99 100 100 100 101 97 88 84 88 95 98 102 105 100 97 100 102 104 103 99 97 88 75
71 61 51 44 43 48 50 46 43 45 46 49 52 54 55 55 51 45 41 36 31 29 30 30 29 30 33 35 37 37 37 40 42 40 40 44 48 49 51 53 53 56 61 69 78 86 92 97 100 101 101 100 101 102 103 103 101 100 100 100 100 101 101 100 100 99 100 101 99 90 83 83 85 91 97 92 90 98 101 96 90 86 88 88 79
76 64 55 48 44 46 47 44 41 40 42 47 50 53 55 54 49 42 37 33 31 29 30 33 33 34 36 37 38 38 37 37 38 40 40 40 40 40 41 43 42 43 47 54 65 77 87 92 95 98 98 96 95 95 95 98 99 100 101 99 98 98 101 102 102 102 100 99 101 99 93 90 89 93 98 96 95 100 99 91 82 74 74 81 80
82 71 62 55 48 44 42 40 38 36 37 42 47 49 49 47 42 37 34 32 30 30 32 36 40 43 45 46 46 44 44 43 41 41 41 42 44 45 45 44 43 41 40 42 46 55 65 73 82 92 97 98 98 97 95 95 96 97 96 96 96 96 98 101 104 106 104 101 101 101 100 99 99 99 99 100 101 102 102 96 87 76 69 72 76
85 76 67 59 53 49 45 43 40 35 33 37 41 42 42 40 37 35 35 34 33 33 35 37 42 45 48 51 52 51 49 49 49 47 45 43 43 44 46 47 49 49 47 45 43 42 44 48 58 71 80 85 85 82 81 81 81 81 79 79 82 85 89 94 98 103 105 107 107 107 103 99 98 101 102 101 100 100 101 101 95 82 70 68 70
88 79 68 59 53 51 51 46 41 37 36 36 39 40 40 40 39 40 41 41 41 41 39 40 44 47 52 57 58 56 53 51 52 52 51 50 47 45 44 43 45 48 49 49 50 49 46 42 42 47 51 53 54 53 53 54 55 56 58 60 63 68 73 76 80 84 88 94 101 107 108 102 95 95 98 102 103 101 98 96 93 83 71 67 66
95 84 72 61 55 53 53 48 41 39 40 41 43 44 45 46 46 49 52 55 57 57 55 54 55 57 62 68 68 64 60 57 55 56 55 54 54 52 50 48 46 46 46 45 48 52 52 48 43 39 40 40 42 44 45 46 47 48 49 51 54 58 62 66 69 69 71 76 83 94 103 105 100 93 89 89 93 95 90 84 80 74 69 66 64
97 86 74 64 56 53 51 46 41 42 46 48 49 49 51 53 55 58 64 71 77 79 76 73 73 76 79 76 68 63 64 64 61 61 60 58 57 56 55 54 52 51 51 48 45 47 50 52 49 43 40 39 40 41 42 43 45 47 48 49 50 51 55 60 66 70 71 72 74 80 88 96 101 99 92 84 79 77 75 71 68 65 64 65 63
91 81 71 61 52 49 48 46 45 51 59 62 62 61 59 60 64 72 79 86 90 92 90 87 88 92 90 78 65 59 64 71 69 66 64 63 62 61 59 57 55 56 57 57 54 50 48 49 51 49 46 45 44 44 46 48 49 50 52 54 55 55 55 55 60 67 73 75 76 76 79 85 96 103 102 98 90 81 75 70 66 63 61 64 65
90 82 72 62 57 57 56 56 59 65 71 74 75 74 72 72 77 84 91 95 96 97 97 97 97 98 96 84 68 57 56 66 73 71 67 65 64 63 62 59 57 56 57 59 61 61 59 55 54 55 55 54 53 52 53 55 56 58 59 61 65 67 67 63 60 64 71 76 80 81 81 81 88 99 104 105 102 96 91 82 72 66 62 66 69
97 92 85 80 80 81 79 80 84 86 87 89 90 90 88 89 92 96 98 99 99 100 100 101 101 100 98 88 74 63 58 63 72 71 65 64 63 62 61 58 56 56 56 56 59 62 65 64 63 64 65 65 64 62 61 62 62 62 63 64 67 69 72 71 66 64 68 73 76 79 85 85 84 90 97 103 105 102 100 96 87 77 66 66 76
100 100 98 97 96 95 96 97 98 98 99 99 99 100 98 97 99 100 101 101 102 101 98 101 103 101 99 93 82 77 74 70 68 66 64 67 69 67 65 62 58 55 54 54 56 59 62 66 69 71 70 71 72 69 67 68 68 67 66 64 65 66 69 72 69 63 63 70 74 74 79 85 86 86 87 94 102 104 103 102 99 94 82 70 75
100 100 100 100 100 99 100 100 100 99 100 100 101 101 99 99 100 99 100 101 101 99 98 99 101 101 103 99 90 87 83 74 69 69 71 74 76 72 69 66 60 54 52 51 51 52 56 61 68 72 71 71 74 75 76 77 75 72 71 68 65 64 66 68 69 66 61 63 70 73 76 82 86 88 86 86 91 98 103 105 102 102 99 85 75
100 101 100 100 101 101 100 100 100 100 100 100 100 100 99 100 101 101 102 102 100 99 98 99 101 102 103 100 96 90 80 73 75 75 72 71 71 70 68 64 57 52 51 49 47 47 49 53 60 66 69 69 71 75 81 85 82 74 69 66 65 63 62 61 63 67 67 62 62 67 74 81 87 92 93 90 90 93 96 101 104 103 104 100 88
99 101 102 101 101 101 100 100 101 101 101 101 101 100 96 92 92 95 98 100 103 102 99 100 99 96 97 98 97 88 75 74 80 76 68 69 71 71 71 70 66 61 56 52 51 49 48 50 55 60 64 67 71 75 76 78 78 74 68 64 62 61 60 59 59 60 62 61 58 58 63 73 84 95 99 97 96 99 97 96 97 98 101 104 103
99 101 100 100 101 100 100 101 101 100 100 100 101 95 83 76 79 88 94 97 101 101 98 94 86 83 92 99 98 90 78 79 88 85 77 79 82 83 84 84 86 83 73 63 58 54 50 49 51 56 61 63 68 74 75 73 71 70 68 64 61 57 55 56 57 54 51 50 51 50 51 57 69 87 102 103 97 98 102 101 98 95 93 95 99
99 99 98 98 99 99 99 101 102 102 101 101 101 92 78 71 72 78 88 94 96 96 94 88 82 88 99 100 97 96 89 89 95 95 92 93 94 93 92 93 98 101 95 82 68 58 53 49 48 52 56 59 64 68 70 70 67 63 61 60 59 57 54 52 52 52 50 47 46 46 47 48 52 66 89 105 103 96 95 99 101 100 95 92 92
99 98 99 99 99 100 99 101 103 104 102 101 100 97 92 88 83 82 89 95 97 98 97 94 92 97 102 99 95 96 95 95 97 96 98 101 98 95 96 99 102 103 104 96 80 65 57 52 49 51 51 52 57 62 63 63 63 61 58 56 57 58 57 55 54 52 51 50 49 50 53 58 60 62 73 92 104 103 98 96 96 97 96 95 93
100 98 100 100 100 101 100 100 102 101 100 100 98 99 100 99 96 96 98 98 98 100 101 99 98 99 101 100 97 94 93 94 96 98 101 100 98 100 103 103 101 97 94 91 83 73 64 57 53 52 54 54 55 58 61 62 63 64 62 59 58 58 58 59 59 57 55 54 56 58 63 68 72 75 76 82 90 97 99 99 96 92 90 90 90
100 99 102 102 101 102 101 101 102 100 100 100 97 98 102 100 97 98 99 99 100 101 100 99 99 99 99 100 100 99 98 98 100 101 99 99 102 104 103 102 99 89 78 75 78 77 70 64 58 53 54 55 54 55 60 63 65 68 69 67 64 62 60 60 61 61 60 60 60 63 67 69 69 71 75 76 77 81 86 91 92 89 84 81 79
100 99 101 101 101 104 103 101 102 101 101 101 99 99 101 101 100 100 99 99 100 101 101 100 98 97 98 99 100 100 100 100 101 101 101 102 101 99 99 98 89 75 67 71 80 83 79 74 68 60 57 57 55 55 57 61 66 69 73 74 72 71 68 65 63 63 63 62 60 61 67 70 68 66 67 67 66 65 68 74 79 81 80 76 71
100 98 97 97 98 102 103 101 100 100 99 100 101 100 99 100 100 99 98 100 101 101 101 101 99 96 96 99 99 101 102 101 99 98 98 95 92 94 95 85 70 62 65 75 85 92 92 86 79 71 65 61 58 57 56 56 59 63 68 71 73 74 74 72 69 67 65 62 59 58 60 64 65 64 65 65 61 58 57 57 60 64 66 67 66
101 101 100 99 99 100 101 100 100 98 98 98 98 97 97 99 100 101 104 105 103 101 100 100 100 99 98 99 100 101 100 96 92 90 88 87 92 93 82 66 58 61 67 74 85 96 99 96 91 86 80 73 66 62 58 54 51 51 53 56 60 63 67 70 71 71 69 66 63 61 61 62 63 62 63 62 60 58 55 51 49 48 49 51 53
100 100 100 100 100 100 100 101 101 100 100 100 99 98 99 101 103 105 106 104 101 100 100 100 100 100 100 100 99 99 97 93 89 88 92 96 92 78 61 55 61 65 66 71 80 87 90 91 91 91 90 87 81 75 71 65 59 54 50 48 48 50 53 57 60 63 65 66 65 63 63 63 62 62 63 62 60 58 54 50 46 43 41 42 44
98 99 100 99 100 100 100 101 101 101 101 101 100 100 101 101 101 101 101 100 99 99 99 100 100 100 101 101 100 100 99 96 95 97 100 93 76 59 53 56 60 62 66 70 72 74 77 80 82 83 84 85 83 79 74 69 66 63 58 52 48 45 45 46 47 48 50 53 54 54 54 54 54 54 57 59 59 57 54 50 46 42 39 38 38
99 99 100 100 100 100 101 101 101 101 100 100 101 101 100 100 100 100 100 99 99 101 100 100 101 100 100 100 100 100 100 101 101 98 88 72 58 52 51 50 51 57 63 66 67 69 72 74 75 76 76 76 75 73 69 66 63 61 58 56 52 47 44 42 42 42 42 42 42 41 41 43 43 43 46 49 50 50 49 47 44 41 39 37 35
104 103 102 101 100 100 100 100 100 100 99 100 101 100 100 101 100 100 102 100 99 101 100 99 100 99 98 100 102 104 104 100 91 78 65 55 51 48 44 42 44 49 55 59 62 65 69 71 72 71 71 70 69 69 67 65 62 60 58 57 56 53 50 47 45 44 44 43 41 38 38 38 37 36 36 38 41 42 41 40 39 37 36 34 33
103 104 104 103 102 100 100 101 102 103 101 100 100 100 101 102 101 101 104 102 100 103 103 101 103 103 102 102 101 95 88 78 68 59 54 50 47 43 41 41 42 43 47 52 54 55 58 62 65 66 67 68 68 68 67 66 64 61 60 59 58 57 55 54 51 49 48 49 46 43 43 43 42 41 39 40 43 45 43 40 39 38 37 37 36
Wind_Speed
50 52 52 54 54 52 51 49 45 41 39 35 34 35 35 35 34 32 27 26 28 30 30 28 25 25 27 26 23 21 19 20 22 22 21 23 25 27 30 32 33 34 34 33 33 33 34 34 35 35 34 33 32 32 32 30 27 27 28 29 29 27 25 25 25 26 26 27 27 26 27 27 27 28 28 29 30 31 31 30 29 30 31 30 29
49 51 52 53 54 54 52 48 45 42 39 38 38 36 35 34 33 30 26 25 29 32 33 29 25 25 24 23 21 20 19 20 22 22 22 24 27 28 29 32 33 32 33 33 34 36 36 35 34 33 33 33 32 31 30 29 27 27 28 29 29 28 25 25 25 26 27 28 27 25 25 26 27 28 29 30 31 31 31 30 30 30 31 31 31
43 46 48 51 53 54 51 48 47 44 43 42 40 38 37 35 35 35 32 30 29 32 33 27 22 23 21 21 19 18 18 19 23 24 25 26 28 30 31 32 32 31 32 34 36 37 36 34 33 32 31 32 31 30 29 28 26 26 27 28 29 28 26 25 26 27 27 28 28 26 25 25 26 27 28 29 30 31 31 31 30 30 31 31 31
39 41 47 53 55 55 54 55 54 52 52 49 44 42 43 42 40 39 36 30 25 28 29 23 21 23 22 21 18 17 18 21 24 26 26 26 28 32 34 33 32 32 33 35 36 35 33 31 30 30 30 30 30 29 28 27 26 25 26 28 28 29 28 28 28 28 28 29 29 28 28 27 27 27 27 28 30 31 31 31 30 30 31 31 31
48 51 58 62 61 60 61 63 61 59 57 54 50 49 49 47 42 39 34 27 23 26 28 27 25 22 19 19 17 16 17 20 24 24 25 26 30 35 36 35 34 33 33 35 35 32 29 28 28 28 28 29 28 28 28 27 27 26 27 29 29 30 30 29 29 29 29 29 30 30 30 29 29 29 29 29 30 31 32 32 31 30 31 32 32
60 64 67 68 67 67 67 66 63 61 58 55 54 53 52 46 41 38 31 24 25 29 29 27 25 19 15 16 17 18 18 19 22 23 25 30 33 35 36 34 32 30 30 31 30 28 26 27 28 27 27 28 28 28 28 28 28 28 29 30 30 31 31 31 30 30 29 29 30 31 30 30 30 30 30 30 30 31 32 33 33 33 33 33 34
65 67 67 67 67 65 63 61 59 57 56 55 54 53 48 42 38 34 26 23 28 32 30 25 21 18 15 14 14 16 18 20 23 25 28 32 31 29 32 32 29 28 29 29 27 26 25 26 27 26 26 27 28 29 29 30 30 30 30 30 31 32 32 31 30 30 30 30 30 31 31 30 30 30 30 30 31 31 32 33 34 35 34 35 36
61 61 60 58 55 53 51 51 50 50 51 51 50 47 43 37 33 28 24 27 31 31 31 28 23 19 18 18 15 15 19 21 22 22 23 25 24 25 30 33 30 29 31 31 28 25 23 24 25 26 26 26 26 27 29 31 32 33 33 32 32 32 32 32 31 31 30 30 31 31 31 31 31 30 30 31 31 32 33 34 35 36 36 36 36
51 49 48 46 45 44 44 44 44 45 45 43 41 39 37 35 31 27 28 32 33 30 30 31 28 23 22 22 20 20 21 21 21 20 18 20 23 25 29 30 30 29 31 31 29 27 24 25 26 26 26 26 26 26 27 29 31 33 34 35 36 36 35 34 33 32 31 31 31 32 31 31 31 31 31 30 31 33 34 35 36 36 36 36 36
44 43 43 42 41 41 41 41 40 38 35 32 31 30 31 32 31 30 32 35 35 34 32 32 31 28 24 23 24 24 23 21 21 22 22 26 29 31 31 31 31 31 31 31 29 28 26 25 26 27 27 27 27 26 25 25 26 28 31 33 35 37 37 36 34 33 32 32 32 32 32 32 32 31 31 31 31 32 34 35 36 36 36 37 36
43 43 42 40 38 37 36 36 35 31 27 25 25 26 27 29 31 33 36 37 37 36 34 33 33 32 28 25 23 22 22 22 24 25 26 30 34 36 36 34 35 34 32 31 28 27 26 26 27 28 29 29 29 28 27 26 26 27 28 29 31 33 35 35 34 33 33 33 33 33 33 33 32 32 31 31 30 31 32 34 35 36 36 36 35
38 37 36 34 32 32 31 30 29 26 23 23 25 27 28 29 31 34 37 39 38 37 36 34 33 33 33 30 26 21 21 23 25 27 27 30 35 38 37 34 33 33 32 31 28 26 27 27 26 26 29 31 30 30 30 30 30 30 29 28 28 30 31 33 33 33 33 33 33 33 33 33 32 32 31 30 30 30 31 33 35 36 36 36 35
33 31 30 30 29 29 27 25 24 23 23 26 28 29 31 32 33 35 37 39 39 39 38 37 35 34 34 34 31 26 25 26 28 31 32 34 38 39 37 34 32 30 29 29 29 28 28 28 25 23 25 27 28 30 31 31 32 32 31 30 29 29 29 31 32 33 33 33 33 33 33 33 32 32 31 30 30 31 32 33 34 36 37 37 37
30 28 27 26 26 26 25 22 21 22 25 29 31 32 34 35 36 38 39 39 40 41 41 41 39 37 36 36 36 35 35 36 36 37 38 38 39 39 38 35 32 29 27 28 29 31 30 29 27 25 24 25 26 27 29 31 33 33 32 32 31 30 30 31 32 33 34 34 35 35 35 35 34 32 32 32 32 32 33 34 35 36 37 38 39
29 27 24 23 23 23 23 22 22 23 26 30 33 35 36 36 38 40 42 41 41 42 43 44 44 42 40 40 42 44 45 45 43 42 41 40 37 38 40 38 34 31 30 30 31 32 31 30 30 30 30 29 28 27 28 29 31 32 32 33 34 33 32 33 34 34 34 34 35 35 36 36 35 34 33 33 33 33 33 34 34 36 38 38 38
27 25 23 22 22 22 23 24 25 27 29 31 34 37 39 40 40 41 43 44 44 43 44 46 47 45 44 44 47 50 52 52 49 45 41 39 37 36 38 39 37 36 35 33 32 34 34 33 32 32 32 32 31 31 30 30 30 32 34 34 35 36 35 35 36 36 35 34 34 34 35 36 36 36 36 36 35 35 36 35 34 35 40 42 40
26 24 24 23 23 24 25 25 27 30 32 33 35 37 41 44 43 43 44 46 47 47 47 49 49 49 49 51 52 54 55 53 50 47 41 36 34 35 37 37 37 38 37 34 33 34 36 35 33 32 33 34 34 33 33 33 32 32 33 34 34 35 35 34 35 36 35 34 34 35 35 36 37 37 37 37 38 38 38 38 36 35 38 43 45
29 28 27 26 26 26 27 26 26 28 31 33 34 36 39 42 44 45 45 46 48 50 52 54 55 55 54 55 54 51 50 48 45 44 42 38 34 35 37 38 38 38 38 37 34 32 34 35 35 33 33 34 35 34 33 32 31 31 32 33 33 33 33 33 33 34 34 34 34 35 36 37 37 36 36 37 37 38 39 40 40 38 37 40 44
34 34 33 30 28 27 28 27 26 25 25 25 26 28 30 33 35 36 37 37 38 40 43 46 48 50 50 50 50 47 45 45 44 42 42 41 37 36 36 38 40 39 39 38 36 34 33 34 36 34 32 32 33 33 32 30 30 30 31 33 34 34 34 33 33 34 34 33 33 34 36 36 36 36 36 36 37 39 40 40 41 42 42 41 41
35 35 34 32 29 28 28 28 27 26 24 22 22 23 25 27 27 27 27 27 27 27 29 31 34 37 40 41 43 42 40 40 40 39 38 39 39 38 36 37 40 40 39 38 37 36 36 35 37 37 34 33 33 33 32 30 30 30 31 33 35 37 37 36 36 36 36 36 36 35 35 36 36 37 38 39 40 42 43 42 43 44 45 45 43
33 33 33 32 30 29 29 30 30 29 29 28 28 28 28 26 24 23 24 24 24 23 23 24 25 27 29 32 34 35 34 35 35 35 34 35 36 37 36 37 39 40 40 39 39 38 38 38 39 40 38 38 38 38 36 34 33 32 33 35 37 39 39 39 39 40 41 42 42 39 38 39 40 41 42 43 43 44 44 43 44 45 46 46 46
34 34 34 34 33 32 32 32 32 32 33 33 33 34 32 28 26 26 26 26 25 24 23 22 22 23 23 24 26 29 30 31 30 30 30 31 32 35 37 38 39 40 41 41 39 39 41 42 42 42 42 43 43 42 41 39 38 37 37 39 40 41 42 42 42 43 44 44 44 43 44 45 46 47 48 47 46 45 44 44 44 45 46 46 48
36 37 38 38 38 37 36 34 34 35 35 35 36 35 33 31 30 31 31 30 29 27 25 22 21 22 22 21 22 24 26 27 26 25 25 26 28 30 33 36 38 39 41 42 42 41 42 44 45 45 45 46 46 46 44 43 42 40 40 41 43 44 45 44 44 45 46 46 46 46 47 48 48 49 49 47 46 46 46 47 47 48 48 47 47
39 39 39 39 41 40 39 37 36 36 36 36 36 35 33 33 33 34 34 33 31 29 27 24 21 20 21 21 21 21 22 23 23 22 22 22 23 25 26 28 32 35 38 42 44 45 45 46 46 46 47 48 49 49 49 48 47 46 45 44 43 44 45 46 46 46 47 49 50 49 49 50 50 50 49 47 46 46 47 47 47 48 48 48 47
40 39 38 39 40 40 40 38 38 38 38 38 37 36 35 35 35 35 34 33 31 29 26 23 21 20 19 19 20 21 22 22 23 23 23 23 24 25 26 26 28 31 35 38 42 45 48 50 50 50 50 49 50 52 53 53 54 54 54 51 48 46 46 46 46 46 46 48 50 52 52 52 52 53 53 51 50 48 45 43 44 45 45 47 47
39 37 38 39 39 39 38 38 38 39 39 39 38 37 37 36 36 35 33 31 29 28 25 22 20 19 20 20 21 21 22 23 25 26 27 28 29 29 29 29 28 29 31 34 37 39 44 48 51 53 54 55 54 55 56 57 58 59 60 60 59 57 54 52 50 49 48 47 48 50 51 51 52 53 53 54 52 50 47 44 44 44 45 46 48
42 41 41 41 41 41 40 39 39 40 40 40 39 38 37 36 35 34 32 30 29 28 25 23 22 22 24 25 25 25 25 25 26 28 29 31 32 32 32 32 31 31 31 33 34 35 38 40 44 47 51 53 54 54 55 56 57 58 60 61 63 64 64 63 61 59 58 56 54 53 52 52 52 52 53 54 54 52 50 49 48 47 47 48 48
48 46 46 45 46 46 45 44 45 44 41 39 38 37 36 35 34 33 31 30 29 28 27 27 27 28 29 29 29 29 29 29 29 30 31 32 32 33 34 34 34 34 35 36 36 37 37 38 39 41 43 46 48 48 49 50 51 52 54 55 58 60 63 65 66 66 65 65 65 63 61 60 58 57 57 56 56 56 55 54 53 51 50 50 50
49 49 49 49 50 49 49 49 49 46 43 40 38 37 36 35 35 34 32 32 32 31 31 31 32 32 32 32 32 33 33 33 33 33 33 34 35 35 35 35 35 36 37 38 38 39 40 41 42 42 42 43 43 42 42 42 42 43 44 45 47 50 53 57 60 63 64 66 67 67 67 66 65 64 63 61 60 60 59 59 58 57 55 53 53
48 49 51 52 52 52 52 51 49 46 43 40 39 38 38 37 37 36 35 34 34 34 34 34 35 35 35 35 36 37 37 36 36 36 36 36 37 38 38 38 38 39 39 39 39 40 41 43 44 45 45 45 44 43 43 42 41 41 41 41 41 42 44 46 49 52 55 58 61 63 65 66 68 68 68 67 66 65 64 64 64 63 60 58 57
52 53 54 55 56 56 55 53 50 47 44 42 42 41 41 40 39 38 37 36 36 36 37 37 36 36 37 39 40 40 39 38 38 38 38 38 39 39 40 41 41 42 42 42 42 42 42 43 44 45 46 46 46 46 46 45 45 44 44 43 43 43 43 43 44 45 48 50 53 56 59 63 66 68 70 70 70 70 69 69 68 67 66 63 60
56 56 57 59 60 59 57 53 50 48 46 45 44 44 43 43 41 40 40 39 39 40 40 40 39 39 40 41 41 41 41 40 41 41 41 41 42 42 42 43 43 44 45 45 45 45 45 44 45 45 46 47 47 47 47 47 47 47 47 46 46 46 46 46 45 45 46 48 49 51 54 57 60 64 66 68 70 70 69 68 68 67 67 65 63
55 56 57 58 59 58 55 53 51 48 47 46 45 45 45 44 43 43 43 43 44 45 45 44 43 43 44 44 44 44 45 45 46 45 45 44 44 45 45 46 46 46 47 47 48 48 48 47 47 47 48 49 48 49 49 49 49 49 50 49 49 49 50 50 50 49 49 49 50 50 52 53 56 58 61 63 65 66 66 66 64 64 64 64 63
52 53 53 53 52 52 51 51 49 48 47 47 46 46 45 45 46 46 47 48 48 48 48 48 48 47 47 47 47 47 49 51 50 48 47 46 46 46 47 47 47 47 47 48 49 50 50 50 50 51 51 52 52 52 52 51 52 52 53 53 53 53 53 53 53 53 53 52 52 53 53 53 54 56 58 60 61 61 63 63 63 62 61 62 62
52 52 52 52 52 51 51 50 49 48 48 48 48 48 47 48 48 49 50 50 49 49 49 49 49 49 49 50 51 52 53 55 54 50 47 46 46 46 46 46 47 47 48 48 49 50 51 51 53 54 54 54 55 55 55 55 55 55 56 55 55 55 56 56 56 56 56 56 56 56 55 55 56 56 57 59 60 61 62 63 64 63 62 62 62
53 54 54 54 53 53 52 50 49 49 49 48 49 49 49 48 49 50 51 51 51 50 49 50 51 52 53 54 55 56 56 55 51 46 43 42 42 41 41 42 43 44 46 47 49 51 52 52 54 55 56 56 56 57 57 57 58 57 57 58 57 57 57 58 58 59 59 59 60 59 59 58 58 58 58 58 60 61 62 63 64 65 65 65 64
56 57 56 54 53 53 51 50 50 51 52 52 53 52 51 49 49 49 50 51 51 51 51 51 53 54 55 55 56 56 56 53 48 44 42 41 41 40 40 43 47 48 48 48 50 51 52 52 54 55 56 56 57 58 58 59 59 59 58 58 58 58 58 58 59 60 61 61 62 62 62 61 61 61 60 60 60 61 62 63 64 65 67 68 68
57 57 56 54 53 52 51 51 52 53 54 55 56 56 55 54 53 53 53 53 51 51 51 50 51 53 53 53 54 55 54 52 48 46 46 46 46 46 48 53 57 59 59 57 55 52 50 50 51 53 54 55 56 57 58 59 59 59 59 58 58 58 58 59 59 60 61 62 63 64 64 64 64 64 63 63 63 63 63 64 64 65 67 69 70
56 57 56 54 52 50 51 51 50 51 52 55 58 59 58 56 55 54 53 52 51 50 50 50 52 53 52 51 52 54 53 51 48 48 49 49 50 51 55 59 63 66 69 68 62 57 54 51 49 49 50 50 52 54 56 57 57 57 57 57 58 58 58 58 59 60 61 61 62 64 64 65 66 66 66 66 66 66 66 66 66 67 67 68 70
53 54 55 55 53 52 53 53 52 54 56 57 59 59 57 56 55 54 52 51 52 53 53 54 54 53 51 51 53 53 51 48 47 47 48 49 51 56 61 65 68 70 72 72 67 62 59 56 52 49 48 48 48 50 51 53 54 54 54 55 56 57 57 58 59 59 59 59 59 61 63 65 66 67 68 68 68 68 68 68 69 69 70 69 70
51 52 53 55 54 53 53 53 53 55 56 58 56 51 49 49 48 47 47 47 49 51 52 53 53 51 51 52 54 54 52 51 50 50 51 54 58 63 67 73 75 75 73 71 68 65 63 60 57 54 52 51 50 49 50 51 52 54 54 54 55 56 56 57 58 59 58 57 57 59 61 63 64 66 69 70 70 70 70 71 71 72 72 72 72
49 50 51 53 53 54 53 53 53 54 53 54 52 45 43 45 43 41 44 46 47 49 50 52 52 53 53 53 55 56 58 58 57 57 59 63 66 69 75 80 82 81 77 72 68 66 65 63 60 58 57 56 54 53 53 53 54 54 55 55 56 56 56 56 58 60 59 57 57 58 60 62 63 65 68 71 72 73 73 73 74 74 75 75 75
60 59 59 60 60 61 62 61 61 61 59 58 57 51 49 50 50 49 51 53 53 54 56 57 58 57 56 56 57 59 61 61 61 64 69 71 73 78 83 85 86 84 79 73 69 67 65 64 62 60 59 59 58 55 55 56 56 55 56 56 56 56 57 57 57 59 60 60 59 59 60 63 64 64 66 70 72 74 75 76 77 77 77 78 78
75 74 74 74 73 73 74 72 69 70 70 69 68 65 62 62 62 61 62 62 62 63 64 65 64 60 58 58 59 62 63 65 69 74 77 79 82 86 87 88 87 83 77 73 69 68 66 64 63 62 61 61 60 57 57 58 57 56 56 57 57 57 58 58 59 60 62 63 62 61 62 65 67 66 66 69 72 74 75 77 78 79 80 81 81
78 78 78 78 78 76 76 76 75 76 76 76 75 73 72 71 70 69 70 70 70 70 70 69 66 62 60 62 65 67 71 76 80 83 85 87 88 89 89 89 85 80 74 71 69 67 67 65 64 63 63 63 61 59 59 60 58 57 57 58 59 59 59 60 61 62 64 65 64 62 63 66 69 69 69 71 72 73 75 77 79 80 82 83 83
81 81 80 79 78 77 77 78 78 78 78 79 79 77 75 73 73 74 76 76 74 72 71 69 67 67 69 73 76 79 83 86 88 90 91 91 91 91 89 86 80 75 71 69 68 68 68 67 66 66 65 65 63 62 61 61 59 58 58 58 59 60 60 61 62 63 65 67 67 65 64 66 69 70 72 74 74 74 75 77 79 80 81 82 83
85 85 83 82 81 80 80 80 81 81 80 80 79 78 77 77 77 77 77 75 72 70 69 70 72 76 80 84 85 87 89 92 93 93 93 93 93 91 86 78 73 71 69 68 68 68 68 68 68 68 68 67 66 65 64 64 62 61 60 60 60 61 61 62 63 64 65 67 68 67 66 66 68 70 72 75 76 76 77 78 79 79 80 80 82
85 85 86 86 86 85 84 84 83 82 82 81 80 80 79 79 77 76 75 73 72 72 74 77 81 85 87 88 89 91 93 95 95 95 95 95 92 86 78 72 69 68 66 66 66 66 66 67 67 67 68 68 67 67 66 65 65 64 63 63 62 62 62 62 63 64 65 67 68 68 66 66 68 69 71 74 76 78 79 80 80 80 80 80 81
82 83 84 85 85 84 84 83 82 81 80 80 80 80 80 80 79 78 78 78 79 82 84 87 89 91 92 92 93 94 96 97 97 98 97 94 87 79 72 68 66 65 65 65 63 63 63 64 64 65 65 66 66 66 65 64 64 63 63 63 63 63 62 62 62 64 65 66 68 68 67 66 67 69 70 73 75 77 79 80 81 81 81 82 82
85 85 85 85 84 84 83 82 83 84 83 83 83 83 83 83 84 85 86 87 87 89 91 92 94 96 96 96 96 97 98 100 100 98 94 87 80 74 70 67 64 62 64 64 63 61 60 60 60 61 62 62 63 63 63 62 62 61 60 61 61 61 60 60 60 61 62 64 65 66 64 63 64 66 67 69 70 73 75 77 79 80 81 82 82
88 88 88 88 88 87 86 85 87 88 88 88 88 88 89 89 90 92 93 93 93 93 94 96 97 98 98 98 98 99 99 99 96 92 86 81 77 74 71 68 65 62 62 63 63 61 60 59 59 59 59 59 59 59 59 59 59 58 58 58 58 58 57 57 57 57 57 59 61 61 59 58 59 61 62 62 62 65 69 71 72 74 75 76 77
Wind_Direction
258 259 260 264 271 278 286 290 289 288 290 290 291 293 292 292 291 291 297 306 303 300 299 294 293 291 282 273 268 265 261 261 266 270 276 280 282 284 285 284 283 285 285 280 275 274 273 270 266 264 262 260 261 259 256 256 256 256 257 251 248 246 248 255 259 260 259 258 257 254 249 243 240 238 238 239 240 243 246 248 250 252 254 255 255
254 257 259 263 270 277 284 288 287 287 287 285 286 291 289 287 285 282 286 292 288 293 301 299 295 291 280 265 255 254 254 258 265 269 274 279 285 290 289 287 288 287 285 281 278 277 274 270 266 263 260 258 258 260 257 254 252 255 253 247 247 247 249 255 259 261 259 258 256 252 248 246 243 241 239 239 239 241 243 246 248 251 253 254 255
255 261 264 268 275 280 283 284 286 286 286 284 283 287 287 283 278 274 278 279 273 281 290 290 285 282 273 259 252 252 255 262 269 272 274 279 286 291 291 289 288 287 283 282 281 280 276 269 264 259 258 257 257 258 256 251 249 250 247 244 247 249 251 257 261 261 261 259 255 251 249 249 247 245 242 241 240 240 241 243 247 250 253 254 255
263 271 274 277 280 282 283 283 284 285 284 282 280 283 286 283 276 273 276 275 270 277 279 273 276 279 270 260 259 262 265 271 275 278 280 282 289 293 292 290 289 286 281 280 281 280 274 267 262 258 256 255 255 256 253 249 246 244 243 245 249 252 255 261 263 263 263 262 257 255 254 253 251 247 244 242 241 240 240 241 246 251 254 254 255
264 272 278 281 282 283 284 284 284 283 281 279 277 280 284 281 273 271 273 270 271 276 268 264 273 278 269 260 259 263 269 276 278 280 283 287 294 294 288 286 286 283 278 278 278 275 266 260 259 257 255 252 252 253 251 247 244 242 242 246 250 254 257 261 262 262 264 264 259 257 257 255 253 249 247 245 242 240 238 238 242 248 252 254 254
265 271 277 280 281 282 283 283 282 281 279 277 277 279 281 277 268 269 270 261 264 268 261 261 267 269 272 268 263 264 272 283 285 284 287 294 297 291 286 284 281 277 277 277 273 265 259 259 260 258 255 251 249 249 248 246 245 244 245 249 252 255 256 258 259 260 263 264 261 260 259 256 254 252 251 250 248 245 241 239 239 243 247 251 252
268 271 275 277 279 280 280 280 279 278 277 276 276 277 277 270 261 264 263 252 257 258 252 252 252 255 264 262 260 265 274 288 297 299 299 300 294 281 278 280 276 275 276 272 267 262 258 258 261 262 259 254 250 249 248 248 247 248 249 252 254 255 256 256 258 259 262 263 260 261 261 258 256 255 256 255 254 251 247 243 241 241 244 248 250
272 274 275 277 278 278 280 280 278 277 276 275 274 272 267 260 254 256 252 246 251 250 243 243 242 241 242 244 249 259 270 282 295 306 308 305 296 279 272 272 271 274 274 267 262 259 254 250 254 260 262 261 257 254 253 252 251 251 252 253 255 257 257 258 259 260 262 262 258 259 260 260 258 257 257 257 258 255 252 248 244 242 242 245 248
275 276 276 278 279 281 282 282 280 278 276 272 270 264 257 251 245 244 243 241 243 243 240 242 243 240 237 239 245 252 264 276 285 292 291 287 282 276 273 272 272 271 269 265 259 254 251 248 249 253 257 261 262 261 260 257 256 256 256 257 257 259 259 260 261 260 261 260 257 258 260 259 258 258 257 256 257 256 254 252 249 246 244 245 247
278 280 280 281 282 284 283 281 278 275 273 266 259 253 248 244 236 234 238 238 238 239 241 245 247 248 245 241 244 249 256 269 277 278 277 274 270 268 269 272 272 268 264 263 257 251 251 252 250 251 253 258 260 260 259 259 260 260 261 261 261 260 260 261 261 260 258 257 255 257 259 258 257 256 256 255 255 255 255 253 251 248 247 247 249
282 283 284 284 284 283 281 277 272 268 263 254 245 238 236 238 234 233 236 238 238 239 242 247 248 250 250 247 251 255 259 265 267 267 274 275 271 268 264 264 268 269 264 260 256 251 252 256 255 252 253 255 257 256 255 258 262 264 264 264 264 263 261 260 261 259 256 254 255 257 259 258 256 254 254 254 254 255 256 255 253 250 248 247 248
286 286 287 287 284 280 274 268 263 258 250 243 234 229 231 234 234 235 237 238 238 238 241 246 246 247 248 249 256 260 259 262 259 261 269 272 271 267 260 261 266 266 261 255 253 253 255 257 256 255 256 255 256 256 256 260 263 264 264 264 263 264 263 261 259 257 255 255 256 257 259 257 255 253 252 252 254 256 256 256 255 252 249 247 246
290 290 291 289 285 279 271 262 255 249 243 238 232 229 232 234 236 238 241 241 241 240 242 246 247 247 247 248 254 257 255 257 258 259 266 271 271 264 257 258 262 261 256 251 249 251 254 254 254 256 260 260 260 259 260 262 262 262 264 263 262 261 262 261 257 255 255 257 257 257 257 256 254 253 252 252 254 256 257 258 257 255 253 250 247
291 292 293 292 289 284 275 263 252 248 244 238 234 233 235 237 238 241 244 246 247 246 246 248 250 251 252 252 255 258 256 257 261 262 265 269 268 261 253 251 254 256 255 252 249 250 253 255 254 253 255 259 262 263 264 264 262 262 263 262 260 257 258 258 255 253 254 256 257 258 257 256 255 253 253 253 254 256 257 258 257 256 254 253 251
291 292 293 295 295 291 283 269 254 250 250 246 240 238 238 242 243 243 245 247 248 249 249 251 254 257 261 261 260 262 260 259 261 262 262 261 258 256 252 247 247 250 252 252 248 247 250 253 254 253 253 256 258 260 261 260 259 258 258 260 258 255 254 254 253 251 252 253 254 255 256 256 256 255 255 256 256 257 257 257 258 257 256 254 253
290 289 290 294 295 294 291 280 262 251 250 251 249 245 245 247 247 247 247 248 249 250 250 251 254 259 263 265 265 265 265 264 263 261 260 255 249 249 250 247 247 248 251 252 248 245 246 248 251 252 252 251 252 254 254 253 254 255 256 258 259 257 255 254 253 252 251 251 252 254 255 256 256 257 258 259 259 258 256 256 258 257 256 256 255
285 284 286 288 290 291 292 289 277 261 250 246 247 248 249 249 250 251 252 252 253 254 255 254 257 261 263 265 267 267 267 267 264 259 255 251 246 243 244 246 247 247 248 252 253 249 246 246 248 250 249 246 247 251 252 252 253 254 253 254 256 258 256 254 253 252 251 252 254 257 259 260 260 260 261 261 260 258 256 255 257 257 255 255 256
279 281 283 284 284 286 288 289 285 274 260 251 248 249 251 252 253 255 256 256 258 259 260 260 261 263 263 263 265 266 265 265 263 258 252 248 246 244 243 244 245 245 244 247 252 251 247 245 245 250 251 246 245 247 249 251 252 251 251 250 251 252 251 251 251 250 251 253 257 260 261 261 262 261 260 259 259 259 258 256 257 258 259 257 255
277 280 281 281 280 281 283 284 282 276 266 258 255 255 257 258 259 260 261 262 262 262 262 262 262 263 262 260 262 264 264 263 262 259 253 247 243 244 246 246 245 244 243 243 246 248 246 243 242 247 250 245 242 241 241 245 247 249 250 249 248 246 246 249 251 252 251 252 257 261 261 261 260 260 259 259 261 263 263 262 260 260 260 260 258
279 281 281 280 279 280 281 281 278 272 266 262 260 263 268 268 266 266 269 269 267 267 266 266 266 264 262 260 261 264 263 261 259 256 252 246 243 244 246 247 247 247 246 243 243 244 244 242 241 244 246 242 238 235 236 239 242 244 247 249 249 248 248 249 251 253 253 254 257 260 261 261 260 261 262 262 264 266 268 268 266 263 261 261 261
282 283 281 280 281 282 282 280 278 274 270 268 267 272 277 276 271 272 279 279 274 273 272 268 268 269 269 266 264 262 260 258 256 252 251 250 247 245 246 247 247 249 250 247 245 245 244 243 243 244 245 244 241 239 239 240 241 244 246 248 250 250 249 250 252 254 255 256 258 259 258 257 259 261 264 265 266 268 270 270 268 266 265 263 262
283 285 283 282 282 284 284 283 282 279 275 273 273 276 281 282 280 281 287 290 285 281 279 274 268 268 272 273 269 263 258 255 253 251 251 252 251 249 250 251 250 249 249 247 247 248 247 246 245 246 246 248 249 248 247 246 246 247 248 248 250 252 253 253 255 256 257 257 258 257 256 256 258 260 263 266 267 267 268 268 267 267 268 266 263
282 285 285 284 283 283 284 283 282 281 278 276 277 279 283 286 289 289 292 294 292 287 284 282 277 272 270 271 273 269 259 253 252 250 250 251 251 251 253 256 256 253 249 247 246 249 250 248 247 247 248 249 251 252 252 251 249 248 251 252 252 254 256 257 257 258 259 260 259 257 257 258 259 261 262 264 265 265 266 267 267 268 269 268 264
281 283 284 286 285 282 281 282 281 280 279 278 278 281 284 288 290 292 293 293 292 289 285 283 282 280 274 269 267 268 264 258 255 253 252 252 251 252 255 258 258 256 253 250 248 249 250 250 249 249 249 250 250 251 253 252 250 249 252 255 256 257 258 258 259 259 260 262 261 260 258 259 261 262 262 263 264 265 266 266 267 268 268 267 265
280 281 282 286 286 282 280 281 281 280 279 279 280 281 285 288 289 291 291 290 290 289 285 282 281 282 283 279 272 268 264 261 259 258 258 259 259 260 261 262 261 258 256 255 253 252 252 252 251 251 250 251 251 252 253 253 253 252 252 253 255 258 259 259 260 261 262 263 264 264 262 261 262 263 264 264 264 265 264 264 267 268 267 266 264
279 280 282 284 284 282 280 280 282 283 282 280 281 282 284 286 287 288 289 288 289 289 285 283 284 285 288 291 288 282 274 268 263 260 260 261 263 264 264 264 263 261 259 259 258 257 256 256 255 254 254 254 254 255 256 256 256 255 255 255 255 257 258 258 260 260 261 262 262 263 263 263 262 262 263 263 263 262 261 262 266 269 268 266 263
278 279 280 280 280 280 279 280 284 287 286 282 280 282 283 283 285 287 288 288 291 291 288 286 289 293 295 295 294 292 288 283 276 270 266 265 264 265 264 264 263 262 261 261 262 260 260 260 259 258 257 257 258 259 260 260 260 259 259 259 259 259 258 259 259 260 261 261 260 260 260 260 260 259 260 261 261 260 259 261 265 267 269 268 264
277 277 277 277 278 278 278 280 284 288 287 282 280 280 281 282 285 288 289 290 293 293 291 292 294 297 299 299 298 297 294 291 288 283 278 273 270 268 266 264 263 263 262 262 262 262 260 260 260 260 259 258 259 260 261 262 262 262 262 262 262 262 261 261 261 261 262 262 263 262 261 259 258 258 259 260 260 260 260 261 263 265 267 267 265
276 276 277 277 278 277 278 281 284 286 284 282 280 281 282 284 286 289 290 291 292 292 292 292 295 297 298 300 302 301 298 295 292 289 285 281 278 275 273 270 266 265 264 263 262 261 261 260 259 258 258 258 259 259 260 261 261 262 263 263 263 263 263 263 262 262 262 262 263 263 263 262 260 259 259 260 261 261 261 262 264 265 266 265 265
274 275 276 277 278 278 279 280 282 282 282 281 281 282 285 287 287 289 290 289 288 288 289 290 291 294 296 298 301 301 299 296 293 290 288 285 282 280 278 276 273 270 268 265 263 261 261 260 260 259 259 259 259 259 259 260 261 262 263 263 264 264 264 265 264 264 263 263 262 261 262 262 262 261 259 259 260 262 262 263 264 265 265 264 263
274 275 275 276 276 276 277 278 280 282 284 285 285 287 288 288 289 290 290 289 286 284 284 285 287 290 292 295 298 300 299 296 293 290 288 286 284 282 280 278 277 275 272 270 267 264 262 261 261 260 260 259 259 260 261 262 262 262 263 264 264 264 264 264 265 266 266 265 264 263 261 260 261 261 261 261 261 262 263 264 264 264 264 263 260
275 276 276 277 277 278 278 280 283 286 288 288 288 289 289 289 290 290 290 288 285 283 283 282 283 286 290 292 295 298 299 297 295 291 289 286 284 282 281 280 279 277 275 272 269 267 264 262 261 261 261 261 261 262 263 264 265 266 266 266 266 266 265 264 264 265 266 266 266 265 264 262 260 260 260 261 262 262 263 264 264 264 263 262 258
276 277 278 279 280 281 283 285 287 287 287 287 287 287 288 289 288 288 288 286 285 284 283 282 281 284 287 289 292 296 298 299 296 293 289 286 284 282 281 280 280 278 276 273 270 268 266 264 262 262 262 262 262 263 263 265 266 267 267 267 267 267 267 266 264 263 264 265 265 265 265 264 262 261 259 259 260 261 262 262 263 263 263 262 258
274 275 277 278 280 281 283 285 285 285 285 284 285 285 285 285 285 284 284 284 284 283 282 281 281 283 285 287 290 293 295 297 297 293 289 286 284 283 282 281 280 278 276 274 271 269 267 265 264 262 262 262 263 263 264 265 267 268 267 266 266 266 266 267 265 263 262 262 262 263 263 263 263 262 260 259 258 259 259 260 260 261 261 260 259
270 272 274 276 277 278 279 280 280 281 281 281 281 280 280 279 278 278 278 279 281 281 281 280 280 282 284 286 288 291 293 295 296 293 289 286 284 283 283 282 281 279 277 275 272 270 268 267 265 264 264 264 264 264 265 266 267 268 268 267 266 266 266 267 266 264 262 261 261 261 261 261 261 262 261 260 259 258 257 257 257 258 258 258 258
267 270 273 275 276 277 278 278 278 278 278 277 277 278 278 278 277 276 276 277 279 280 280 280 281 283 285 286 288 290 292 294 294 292 289 287 286 287 287 286 286 285 282 278 275 272 269 268 267 266 266 265 265 266 266 267 267 267 267 267 266 266 266 266 266 265 263 261 260 260 260 260 260 260 261 261 260 259 257 256 255 255 256 256 256
268 271 272 273 274 276 276 275 275 275 274 274 275 275 275 275 275 277 277 278 279 279 279 281 282 283 284 285 286 288 291 294 293 290 290 290 290 291 293 294 296 296 293 289 285 279 273 270 268 267 267 266 266 266 266 266 266 266 266 265 265 265 265 265 264 264 263 262 260 259 259 259 260 259 259 259 260 260 259 258 256 254 254 254 254
270 270 270 270 272 272 271 271 272 273 274 275 274 273 273 274 276 277 279 280 278 276 277 279 281 283 284 285 286 288 292 293 290 289 291 292 292 293 294 297 299 300 299 297 293 286 280 276 272 269 268 267 267 267 266 265 265 265 265 265 264 264 264 264 263 262 262 262 262 260 259 258 258 258 258 258 258 258 258 258 258 256 255 254 253
269 268 267 267 269 270 271 272 272 275 278 277 275 274 276 277 278 279 279 279 278 278 280 282 285 287 286 285 286 289 290 289 286 287 290 291 291 293 295 298 299 300 300 300 295 288 283 279 275 272 271 270 269 269 268 267 266 265 265 265 265 264 263 263 263 263 262 262 262 262 261 259 258 257 258 258 257 257 257 257 258 257 257 255 254
270 270 270 270 270 271 272 272 274 277 278 277 277 280 282 282 282 282 281 280 281 283 285 286 287 286 284 284 285 286 286 285 284 285 287 287 289 291 294 297 299 298 298 298 295 289 284 280 276 272 271 271 270 270 270 269 269 268 266 266 266 266 265 264 263 263 263 264 264 264 264 262 260 258 257 257 258 258 257 257 257 257 257 257 257
267 269 271 272 272 271 271 271 274 277 278 278 280 282 282 283 284 281 278 277 279 281 283 283 283 282 280 281 282 282 282 282 282 282 283 284 287 290 294 297 298 297 295 293 291 288 284 281 277 273 271 270 268 268 268 269 270 270 269 267 266 266 266 265 265 264 263 264 265 266 265 265 263 260 258 256 256 257 258 258 258 258 258 257 257
263 266 267 270 271 271 271 272 273 274 275 279 281 276 271 274 276 273 272 273 274 275 276 277 278 278 277 277 278 279 280 281 281 281 283 286 288 291 294 296 297 296 294 290 286 284 282 280 277 274 272 271 269 267 267 267 268 269 270 269 268 267 266 265 265 265 264 264 264 265 266 266 264 263 261 259 257 256 257 258 259 259 258 258 257
261 263 265 267 270 271 271 272 273 273 272 274 276 272 266 267 269 269 271 273 271 271 273 274 275 276 275 275 275 276 278 278 280 282 286 288 289 292 294 295 296 295 292 288 284 282 280 278 276 274 272 271 269 268 267 267 266 267 268 268 269 269 268 266 265 265 265 264 263 263 264 265 265 264 263 262 261 259 258 258 259 259 259 259 258
261 262 263 265 267 268 269 270 270 272 272 272 274 272 267 267 269 270 272 273 271 271 272 273 274 273 272 273 274 274 275 277 280 284 286 288 290 292 294 294 294 293 290 286 283 281 279 278 276 275 273 272 271 269 268 267 266 265 265 266 266 267 268 268 267 266 266 265 263 262 262 263 264 263 263 263 263 262 261 260 259 259 260 260 260
261 263 264 264 265 266 267 268 269 270 271 272 273 272 269 269 269 271 273 274 273 272 271 271 272 271 271 274 276 276 276 279 282 285 286 288 290 292 293 294 293 290 286 284 281 279 278 277 276 275 274 273 272 270 269 267 265 264 263 263 263 263 264 265 266 266 265 265 264 262 262 263 263 263 263 263 263 263 263 262 261 261 260 261 261
258 260 261 262 263 264 265 267 268 269 270 271 271 271 271 270 271 272 274 274 273 271 270 269 269 270 272 276 278 278 279 281 284 286 287 289 291 292 293 292 289 286 284 282 279 277 276 276 276 276 275 275 274 273 272 270 268 265 264 262 261 261 261 262 262 263 263 264 264 263 262 263 263 264 264 263 263 262 262 262 262 262 262 262 262
256 257 258 259 261 262 264 265 267 267 268 268 268 269 269 270 271 272 272 271 269 268 267 267 269 272 275 278 279 280 282 284 285 287 288 290 291 292 291 289 286 284 283 281 278 277 276 275 275 275 275 275 275 275 275 274 273 271 269 267 265 263 262 261 261 261 261 262 262 262 261 262 262 262 262 263 263 263 263 263 263 263 263 263 263
256 257 258 259 261 262 263 264 265 265 266 266 266 267 268 268 269 268 266 265 265 266 267 269 271 274 276 278 280 281 283 284 286 287 288 289 290 290 288 285 284 284 282 280 279 278 277 276 275 275 275 275 275 275 274 274 273 273 272 270 268 266 265 264 263 263 262 262 262 261 261 261 261 261 260 261 261 262 263 264 264 264 264 264 263
259 259 260 261 261 262 263 263 264 263 263 264 265 266 267 267 266 265 264 265 266 268 270 271 273 275 277 278 280 281 282 283 285 286 287 288 287 285 283 283 283 284 283 282 280 279 278 277 276 276 275 275 275 275 275 274 274 273 272 272 271 269 268 267 266 266 265 265 264 263 262 262 261 260 260 260 260 261 262 263 264 264 265 264 264
260 261 262 262 262 262 262 263 263 263 263 263 264 265 266 266 266 266 267 267 268 269 271 272 273 275 277 278 279 280 281 282 284 285 285 285 284 282 281 281 281 281 282 283 282 281 280 279 278 277 276 276 276 276 276 276 275 274 274 273 272 272 271 270 269 269 268 268 267 266 265 264 263 262 261 260 261 262 262 262 263 264 264 264 264
259 260 261 262 262 262 262 263 263 264 264 264 264 265 266 266 267 268 268 269 269 270 271 272 273 275 276 277 278 279 280 281 282 283 283 282 281 280 280 280 279 279 279 281 282 282 281 280 279 278 277 277 277 276 276 276 276 276 275 275 274 274 273 273 271 270 270 270 270 269 269 268 267 266 265 263 264 265 265 264 263 263 263 264 264